COSMOS 2251 DEB, 34754

Orbit data source: Space-Track

COSMOS 2251 DEB, 34754 is space debris in LEO originally from a launch on Wed, 16 Jun 1993 UTC launched from the Plesetsk Missile And Space Complex (PKMTR). The debris from Iridium 33, an American commercial communications satellite, has been tracked extensively since its accidental collision with the defunct Russian satellite Cosmos 2251 in 2009. This event, occurring at high speed in low Earth orbit (LEO), generated thousands of pieces of space debris, significantly increasing the risk of further collisions. The Iridium 33 debris cloud has impacted space traffic management and orbital debris mitigation strategies, making it a subject of ongoing study in space situational awareness.

Loading next visibility...
Identifier
34754, 1993-036ZY
Orbit
LEO
Country
Flag of CISCIS
Related business
Manufacturer
Unknown
Mission
Spacecraft
Bus & Motor
Unknown
Mass
Unknown
Launch date (UTC)
1993-06-16 (33 years ago)
Launch vehicle
Unknown
Launch site
Plesetsk Missile And Space Complex (PKMTR)
Object type
Payload
Rocket body
Debris
Shape & HBR
Unknown shape, 0.1 m
Radar Cross Section
Small (<0.1 m²)

Expand to show TLE details & history
Last TLE update: 5 hours ago

TLE from 5 hours ago
0 COSMOS 2251 DEB
1 34754U 93036ZY  26037.64527230  .00000800  00000-0  25814-3 0  9992
2 34754  74.0307 124.1855 0030341 230.9989 253.3991 14.40583102889389
Epoch: 2026-02-06T15:29Z
TLE epoch observation values (Epoch: 2026-02-06T15:29:11.526Z)
Latitude
52.89949°
Longitude
-87.00082°
Altitude
771.095 km
Speed
7.471 km/s
True Right ascension
18h 48m 18s
True Declination
52° 44' 03"
Sunlit
Object was in daylight at epoch
Visualization orbit readout
Latitude
Unknown
Longitude
Unknown
Altitude
Unknown
Speed
Unknown
Apparent Right ascension
Unknown
Apparent Declination
Unknown
Sunlit
N/A
Visualization observer readout
Local Sidereal Time
23:05:30
Azimuth
Unknown
Elevation
Unknown
Doppler factor
Unknown
Orbital elements
Apogee altitude
775.832 km
Perigee altitude
732.552 km
Semi-major axis
7,132.329 km
Eccentricity
0.00303
Inclination
74.0307°
RAAN
124.1855°
Arg. of periapsis
230.9989°
True anomaly
253.06627°
Mean anomaly
253.3991°
Eccentric anomaly
253.23265°
Mean motion
3.60326 °/min
Orbital period
99.91 mins
BSTAR
0.00025814
Loading maneuver chart data...
Computing Atmospheric mass density...

Documentation

Showing up to 5 results
|